DLH174 EDDF-EDDC

Flight info

Callsign DLH174
Flight time 0h 39m
Altitude 23000
Route SULUS6F SULUS L984 KULOK Z715 ABKIS/N0392F220 Q240 DRN
Aircraft A321/M-SDE3FGHIRWY/LB1

Departure

Time 2026-04-19 06:17
Airport Frankfurt Main Airport (EDDF)

Arrival

Time 2026-04-19 06:57
Airport Dresden Airport (EDDC)
Time Latitude Longitude Altitude Speed Heading
2026-04-19 05:38 50.04431 8.56329 362 ft 0 kts 166°
2026-04-19 06:08 50.04432 8.56328 356 ft 1 kts 166°
2026-04-19 06:08 50.04455 8.56320 360 ft 4 kts 167°
2026-04-19 06:08 50.04480 8.56313 356 ft 4 kts 189°
2026-04-19 06:08 50.04501 8.56331 358 ft 4 kts 236°
2026-04-19 06:09 50.04513 8.56368 362 ft 4 kts 249°
2026-04-19 06:09 50.04515 8.56378 356 ft 0 kts 249°
2026-04-19 06:11 50.04515 8.56377 356 ft 1 kts 249°
2026-04-19 06:12 50.04500 8.56313 356 ft 6 kts 249°
2026-04-19 06:12 50.04480 8.56232 356 ft 10 kts 249°
2026-04-19 06:12 50.04453 8.56119 358 ft 13 kts 249°
2026-04-19 06:12 50.04391 8.56031 362 ft 14 kts 171°
2026-04-19 06:13 50.04296 8.56111 359 ft 17 kts 119°
2026-04-19 06:13 50.04216 8.56252 362 ft 19 kts 156°
2026-04-19 06:13 50.04150 8.56375 354 ft 16 kts 73°
2026-04-19 06:13 50.04188 8.56536 360 ft 16 kts 69°
2026-04-19 06:14 50.04227 8.56697 357 ft 16 kts 69°
2026-04-19 06:14 50.04264 8.56852 364 ft 16 kts 69°
2026-04-19 06:14 50.04305 8.57024 364 ft 18 kts 69°
2026-04-19 06:14 50.04350 8.57211 361 ft 19 kts 70°
2026-04-19 06:15 50.04399 8.57414 361 ft 21 kts 69°
2026-04-19 06:15 50.04451 8.57630 364 ft 21 kts 70°
2026-04-19 06:15 50.04502 8.57846 364 ft 22 kts 70°
2026-04-19 06:15 50.04536 8.58023 364 ft 15 kts 93°
2026-04-19 06:16 50.04459 8.58106 365 ft 14 kts 160°
2026-04-19 06:16 50.04382 8.58129 367 ft 9 kts 205°
2026-04-19 06:16 50.04352 8.58030 366 ft 13 kts 249°
2026-04-19 06:16 50.04273 8.57701 362 ft 67 kts 250°
2026-04-19 06:17 50.04030 8.56673 358 ft 136 kts 250°
2026-04-19 06:17 50.03642 8.55046 508 ft 175 kts 251°
2026-04-19 06:17 50.03205 8.53214 1096 ft 185 kts 251°
2026-04-19 06:17 50.02704 8.51348 1794 ft 188 kts 239°
2026-04-19 06:18 50.01677 8.49969 2126 ft 208 kts 204°
2026-04-19 06:18 50.00238 8.49231 2506 ft 224 kts 197°
2026-04-19 06:18 49.98669 8.49103 3092 ft 236 kts 167°
2026-04-19 06:18 49.97155 8.50305 3439 ft 260 kts 135°
2026-04-19 06:19 49.96262 8.52787 3966 ft 270 kts 99°
2026-04-19 06:19 49.96263 8.55687 4654 ft 275 kts 83°
2026-04-19 06:19 49.96446 8.58671 4930 ft 278 kts 83°
2026-04-19 06:19 49.96640 8.61661 5001 ft 278 kts 83°
2026-04-19 06:20 49.96832 8.64675 5533 ft 281 kts 83°
2026-04-19 06:20 49.97022 8.67703 6340 ft 283 kts 84°
2026-04-19 06:20 49.97211 8.70761 7078 ft 287 kts 84°
2026-04-19 06:20 49.97400 8.73869 7785 ft 291 kts 84°
2026-04-19 06:21 49.97588 8.77032 8467 ft 296 kts 85°
2026-04-19 06:21 49.97775 8.80192 9142 ft 299 kts 85°
2026-04-19 06:21 49.97965 8.83426 9828 ft 303 kts 85°
2026-04-19 06:21 49.98157 8.86731 10309 ft 315 kts 85°
2026-04-19 06:22 49.98360 8.90254 10455 ft 338 kts 85°
2026-04-19 06:22 49.98577 8.94013 10591 ft 359 kts 85°
2026-04-19 06:22 49.98806 8.98004 10760 ft 377 kts 85°
2026-04-19 06:22 49.99040 9.02103 11235 ft 384 kts 85°
2026-04-19 06:23 49.99276 9.06271 11801 ft 389 kts 85°
2026-04-19 06:23 49.99512 9.10438 12354 ft 393 kts 85°
2026-04-19 06:23 49.99751 9.14691 12937 ft 396 kts 85°
2026-04-19 06:23 49.99989 9.18975 13482 ft 399 kts 85°
2026-04-19 06:24 50.00230 9.23302 14040 ft 403 kts 85°
2026-04-19 06:24 50.00473 9.27673 14617 ft 406 kts 85°
2026-04-19 06:24 50.00715 9.32062 15178 ft 409 kts 86°
2026-04-19 06:24 50.00954 9.36449 15702 ft 412 kts 86°
2026-04-19 06:25 50.01192 9.40912 16207 ft 416 kts 86°
2026-04-19 06:25 50.01433 9.45428 16701 ft 419 kts 86°
2026-04-19 06:25 50.01672 9.49905 17161 ft 422 kts 86°
2026-04-19 06:25 50.01915 9.54530 17612 ft 425 kts 86°
2026-04-19 06:26 50.02151 9.59071 18069 ft 428 kts 86°
2026-04-19 06:26 50.02392 9.63726 18512 ft 431 kts 86°
2026-04-19 06:26 50.02631 9.68377 18953 ft 434 kts 86°
2026-04-19 06:26 50.02871 9.73086 19402 ft 436 kts 87°
2026-04-19 06:27 50.03110 9.77796 19825 ft 439 kts 87°
2026-04-19 06:27 50.03352 9.82571 20259 ft 442 kts 87°
2026-04-19 06:27 50.03592 9.87343 20667 ft 445 kts 87°
2026-04-19 06:27 50.03831 9.92164 21069 ft 448 kts 88°
2026-04-19 06:28 50.04067 9.96952 21470 ft 451 kts 88°
2026-04-19 06:28 50.04305 10.01836 21856 ft 454 kts 88°
2026-04-19 06:28 50.04542 10.06770 22235 ft 457 kts 88°
2026-04-19 06:28 50.04778 10.11718 22616 ft 459 kts 88°
2026-04-19 06:29 50.05019 10.16707 22947 ft 462 kts 88°
2026-04-19 06:29 50.05254 10.21639 23044 ft 466 kts 89°
2026-04-19 06:29 50.05489 10.26735 23055 ft 473 kts 89°
2026-04-19 06:29 50.05723 10.31879 23054 ft 475 kts 89°
2026-04-19 06:30 50.05957 10.36999 23055 ft 476 kts 89°
2026-04-19 06:30 50.06189 10.42139 23054 ft 476 kts 89°
2026-04-19 06:30 50.06413 10.47209 23053 ft 475 kts 89°
2026-04-19 06:30 50.06642 10.52350 23054 ft 476 kts 88°
2026-04-19 06:31 50.06872 10.57509 23054 ft 476 kts 88°
2026-04-19 06:31 50.07094 10.62654 23042 ft 476 kts 89°
2026-04-19 06:31 50.07308 10.67784 23046 ft 476 kts 89°
2026-04-19 06:31 50.07517 10.72948 23040 ft 476 kts 89°
2026-04-19 06:32 50.07648 10.78096 23032 ft 475 kts 91°
2026-04-19 06:32 50.07681 10.83179 23036 ft 475 kts 92°
2026-04-19 06:32 50.07653 10.88320 23029 ft 474 kts 93°
2026-04-19 06:32 50.07598 10.93479 23027 ft 474 kts 93°
2026-04-19 06:33 50.07544 10.98638 23018 ft 475 kts 93°
2026-04-19 06:33 50.07504 11.03717 23017 ft 475 kts 93°
2026-04-19 06:33 50.07480 11.08870 23018 ft 476 kts 92°
2026-04-19 06:33 50.07469 11.14033 23014 ft 476 kts 92°
2026-04-19 06:34 50.07463 11.19192 23012 ft 477 kts 92°
2026-04-19 06:34 50.07457 11.24376 23012 ft 477 kts 92°
2026-04-19 06:34 50.07606 11.29543 23006 ft 479 kts 82°
2026-04-19 06:34 50.08513 11.34534 23005 ft 480 kts 66°
2026-04-19 06:35 50.09936 11.39225 23007 ft 481 kts 64°
2026-04-19 06:35 50.11393 11.43924 23008 ft 482 kts 64°
2026-04-19 06:35 50.12857 11.48649 23012 ft 483 kts 64°
2026-04-19 06:35 50.14296 11.53304 23016 ft 483 kts 64°
2026-04-19 06:36 50.15759 11.58052 23031 ft 483 kts 64°
2026-04-19 06:36 50.17215 11.62803 23026 ft 483 kts 64°
2026-04-19 06:36 50.18659 11.67529 23016 ft 484 kts 64°
2026-04-19 06:36 50.20104 11.72278 23015 ft 484 kts 64°
2026-04-19 06:37 50.21528 11.76968 23015 ft 484 kts 64°
2026-04-19 06:37 50.22971 11.81725 23013 ft 484 kts 64°
2026-04-19 06:37 50.24412 11.86478 23011 ft 484 kts 64°
2026-04-19 06:37 50.25851 11.91234 23011 ft 484 kts 64°
2026-04-19 06:38 50.27287 11.95996 23010 ft 484 kts 64°
2026-04-19 06:38 50.28726 12.00766 23012 ft 484 kts 64°
2026-04-19 06:38 50.30161 12.05523 23011 ft 484 kts 64°
2026-04-19 06:38 50.31596 12.10289 23010 ft 484 kts 64°
2026-04-19 06:39 50.33023 12.15060 23010 ft 483 kts 64°
2026-04-19 06:39 50.34429 12.19768 23011 ft 483 kts 64°
2026-04-19 06:39 50.35901 12.24503 23014 ft 483 kts 62°
2026-04-19 06:39 50.37439 12.29161 23015 ft 482 kts 61°
2026-04-19 06:40 50.39026 12.33792 23015 ft 482 kts 60°
2026-04-19 06:40 50.40630 12.38406 23015 ft 481 kts 60°
2026-04-19 06:40 50.42228 12.43024 23014 ft 481 kts 60°
2026-04-19 06:40 50.43810 12.47663 23015 ft 481 kts 61°
2026-04-19 06:41 50.44844 12.50735 23016 ft 481 kts 61°
2026-04-19 06:41 50.46396 12.55393 23026 ft 481 kts 61°
2026-04-19 06:41 50.47952 12.60089 23031 ft 481 kts 61°
2026-04-19 06:41 50.49478 12.64706 23029 ft 481 kts 61°
2026-04-19 06:42 50.51028 12.69397 22681 ft 485 kts 61°
2026-04-19 06:42 50.52585 12.74109 22275 ft 482 kts 61°
2026-04-19 06:42 50.54122 12.78759 21876 ft 478 kts 61°
2026-04-19 06:42 50.55654 12.83409 21472 ft 475 kts 62°
2026-04-19 06:43 50.57171 12.88028 21065 ft 472 kts 62°
2026-04-19 06:43 50.58664 12.92588 20676 ft 468 kts 62°
2026-04-19 06:43 50.60137 12.97082 20273 ft 464 kts 62°
2026-04-19 06:43 50.61613 13.01593 19878 ft 461 kts 62°
2026-04-19 06:44 50.63085 13.06068 19475 ft 458 kts 60°
2026-04-19 06:44 50.64630 13.10418 19059 ft 454 kts 58°
2026-04-19 06:44 50.66341 13.14570 18673 ft 449 kts 50°
2026-04-19 06:44 50.68358 13.18308 18300 ft 446 kts 47°
2026-04-19 06:45 50.70366 13.22016 17833 ft 442 kts 48°
2026-04-19 06:45 50.72355 13.25702 17356 ft 438 kts 48°
2026-04-19 06:45 50.74331 13.29370 16886 ft 435 kts 48°
2026-04-19 06:45 50.76279 13.32991 16411 ft 431 kts 48°
2026-04-19 06:46 50.78215 13.36594 15910 ft 428 kts 48°
2026-04-19 06:46 50.80136 13.40166 15453 ft 424 kts 48°
2026-04-19 06:46 50.82015 13.43661 14985 ft 421 kts 48°
2026-04-19 06:46 50.83903 13.47176 14499 ft 417 kts 48°
2026-04-19 06:47 50.85780 13.50671 14032 ft 413 kts 48°
2026-04-19 06:47 50.87640 13.54139 13553 ft 410 kts 48°
2026-04-19 06:47 50.89458 13.57536 13080 ft 406 kts 48°
2026-04-19 06:47 50.91279 13.60946 12606 ft 403 kts 48°
2026-04-19 06:48 50.93083 13.64332 12129 ft 400 kts 48°
2026-04-19 06:48 50.94875 13.67699 11652 ft 396 kts 48°
2026-04-19 06:48 50.96641 13.71016 11177 ft 393 kts 48°
2026-04-19 06:48 50.98401 13.74322 10703 ft 390 kts 49°
2026-04-19 06:49 51.00141 13.77594 10141 ft 386 kts 49°
2026-04-19 06:49 51.01854 13.80827 9565 ft 376 kts 49°
2026-04-19 06:49 51.03469 13.83886 8998 ft 355 kts 49°
2026-04-19 06:49 51.05015 13.86812 8427 ft 336 kts 49°
2026-04-19 06:50 51.06628 13.89390 7848 ft 320 kts 40°
2026-04-19 06:50 51.08287 13.91663 7280 ft 308 kts 40°
2026-04-19 06:50 51.09886 13.93865 6696 ft 299 kts 40°
2026-04-19 06:50 51.11428 13.96001 6121 ft 291 kts 41°
2026-04-19 06:51 51.12922 13.98079 5549 ft 283 kts 41°
2026-04-19 06:51 51.14394 14.00122 4972 ft 277 kts 41°
2026-04-19 06:51 51.15838 14.02128 4400 ft 273 kts 41°
2026-04-19 06:51 51.17297 14.03985 3821 ft 268 kts 30°
2026-04-19 06:52 51.19015 14.04926 3485 ft 255 kts
2026-04-19 06:52 51.20739 14.04759 3260 ft 245 kts 345°
2026-04-19 06:52 51.22248 14.03605 3065 ft 237 kts 322°
2026-04-19 06:52 51.23344 14.01706 2999 ft 232 kts 301°
2026-04-19 06:53 51.23936 13.99341 2997 ft 233 kts 279°
2026-04-19 06:53 51.23960 13.96742 3004 ft 233 kts 258°
2026-04-19 06:53 51.23633 13.94225 2992 ft 234 kts 257°
2026-04-19 06:53 51.23285 13.91709 3005 ft 226 kts 253°
2026-04-19 06:54 51.22577 13.89529 2831 ft 219 kts 229°
2026-04-19 06:54 51.21486 13.87921 2581 ft 204 kts 219°
2026-04-19 06:54 51.20476 13.86524 2343 ft 186 kts 219°
2026-04-19 06:54 51.19537 13.85224 2128 ft 169 kts 219°
2026-04-19 06:55 51.18680 13.84039 1883 ft 155 kts 219°
2026-04-19 06:55 51.17890 13.82948 1688 ft 144 kts 219°
2026-04-19 06:55 51.17159 13.81936 1483 ft 139 kts 219°
2026-04-19 06:55 51.16423 13.80919 1330 ft 140 kts 219°
2026-04-19 06:56 51.15683 13.79897 1149 ft 141 kts 219°
2026-04-19 06:56 51.14943 13.78884 935 ft 143 kts 220°
2026-04-19 06:56 51.14204 13.77856 741 ft 137 kts 220°
2026-04-19 06:56 51.13554 13.76965 735 ft 94 kts 221°
2026-04-19 06:57 51.13168 13.76438 748 ft 62 kts 220°
2026-04-19 06:57 51.12943 13.76124 758 ft 28 kts 221°
2026-04-19 06:57 51.12814 13.75941 762 ft 22 kts 221°
2026-04-19 06:57 51.12729 13.75830 763 ft 9 kts 205°
2026-04-19 06:58 51.12690 13.75852 763 ft 5 kts 133°
2026-04-19 06:58 51.12671 13.75884 762 ft 3 kts 132°
2026-04-19 06:58 51.12650 13.75920 762 ft 8 kts 131°
2026-04-19 06:58 51.12592 13.76026 757 ft 15 kts 127°
2026-04-19 06:59 51.12629 13.76168 753 ft 17 kts 41°
2026-04-19 06:59 51.12727 13.76305 750 ft 20 kts 41°
2026-04-19 06:59 51.12787 13.76457 751 ft 15 kts 116°
2026-04-19 06:59 51.12725 13.76576 748 ft 15 kts 131°
2026-04-19 07:00 51.12678 13.76610 748 ft 7 kts 211°
2026-04-19 07:00 51.12642 13.76561 751 ft 3 kts 221°
2026-04-19 07:00 51.12630 13.76546 749 ft 0 kts 221°